Location: Carrières
(48.9495°N, 2.0407°E)
Time: 12:22:22
(UTC+00:00)

COSMOS 2455 - Pass Details

Date: 28 January 2023
Orbit: 898 x 911 km, 67.1° (Epoch: 22 March)

Event Time Altitude Azimuth Distance (km) Brightness Sun altitude
Rises 18:14:26 0° 212° (SSW) 3,512 6.6 -15.1°
Reaches altitude 10° 18:16:55 10° 213° (SSW) 2,577 5.8 -15.5°
Maximum altitude 18:22:55 90° 116° (ESE) 912 2.8 -16.5°
Enters shadow 18:28:08 14° 35° (NE) 2,291 4.6 -17.3°
